Temp
50 51 55 58 60 60 56 56 53 49 48 55 54 49 50 51 52 53 55 55 58 59 60 60 58 59 59 58 58 56 55 54 53 53 53 53 54 54
50 50 52 56 57 60 59 57 58 54 50 54 50 51 50 50 51 50 51 52 56 57 56 54 54 53 53 53 54 53 53 52 52 52 53 52 52 52
50 50 51 53 54 55 58 59 56 54 50 46 52 49 48 48 47 48 50 50 51 52 52 51 50 50 50 50 51 51 51 51 50 51 51 50 50 51
47 48 48 53 54 54 55 53 56 54 52 48 47 45 45 47 45 45 45 47 48 50 50 49 48 48 48 49 50 50 50 49 48 49 48 48 49 49
46 47 48 49 52 54 55 53 53 52 52 49 44 44 42 43 41 41 41 42 45 49 49 48 47 47 47 47 49 49 48 48 47 46 46 46 47 47
45 47 48 48 49 56 53 54 52 53 50 48 46 42 40 40 42 38 36 38 38 43 45 45 46 46 47 48 48 47 46 45 45 45 45 45 45 45
44 46 48 48 47 51 53 53 51 50 47 45 42 41 38 38 38 38 36 35 34 37 37 37 38 38 42 46 44 44 44 44 44 44 44 44 44 44
43 45 47 47 48 49 51 50 52 49 47 45 42 41 41 39 39 38 34 33 32 35 36 33 37 35 37 39 42 43 43 43 43 42 42 42 43 43
43 44 45 48 48 51 51 50 50 50 51 49 46 45 44 43 41 37 36 36 34 32 33 29 33 35 38 40 41 41 42 43 41 40 41 41 41 41
43 43 44 45 47 51 50 48 48 49 49 49 48 48 46 44 43 40 37 30 31 31 32 29 30 31 38 43 39 40 42 41 39 40 40 40 40 40
42 43 44 44 47 49 47 40 39 39 44 45 45 43 43 43 40 35 32 33 28 28 31 33 31 35 38 41 42 41 39 39 38 38 39 39 39 39
40 42 44 44 47 47 42 39 37 37 38 39 40 41 41 40 41 39 37 34 28 27 31 32 33 37 34 39 40 40 40 37 37 37 37 37 38 38
39 40 43 45 46 45 44 42 39 38 37 33 32 33 33 34 35 36 37 35 33 32 38 37 34 33 34 33 37 39 39 40 39 38 38 38 37 36
38 41 43 45 44 44 42 41 39 36 33 32 31 30 30 30 32 34 35 36 40 37 37 38 32 34 33 32 32 36 38 38 37 36 37 37 37 37
40 42 43 42 41 40 40 38 36 33 32 30 28 28 30 32 33 33 35 35 35 35 35 36 34 32 32 31 30 31 31 34 36 35 35 34 34 35
41 40 40 38 38 37 34 33 33 33 32 28 27 28 31 32 32 34 32 32 30 29 32 33 32 31 29 30 30 30 32 28 33 34 33 33 35 36
36 34 32 31 30 29 29 30 30 30 28 28 28 30 31 31 31 33 32 32 30 29 28 29 29 30 30 29 29 30 30 30 32 31 29 29 33 35
32 30 29 29 28 28 27 27 28 28 28 30 31 31 30 29 29 30 31 30 28 28 27 27 27 27 28 28 29 29 30 29 30 29 30 27 29 34
30 29 28 28 27 27 27 27 27 28 30 31 30 30 29 29 29 28 28 28 26 25 24 26 28 29 28 26 28 30 26 28 28 28 29 28 27 29
30 28 27 27 27 27 27 27 28 29 29 29 29 28 28 27 26 26 27 26 25 25 24 25 24 25 27 25 26 29 28 26 26 25 27 29 31 33
29 29 29 28 28 28 29 29 29 28 28 27 26 26 27 27 25 25 26 26 26 26 23 23 21 22 22 23 25 27 29 30 27 24 25 25 25 27
29 28 28 28 28 29 28 29 28 27 26 26 26 26 26 26 25 26 27 25 25 25 22 22 21 24 25 24 21 22 26 26 30 29 29 27 23 19
28 28 28 28 29 30 29 28 27 27 26 25 25 25 26 25 27 26 25 24 24 23 24 23 24 24 21 21 21 22 21 24 26 25 28 30 31 29
MSLP
1014.08 1013.77 1013.19 1012.66 1012.45 1012.38 1012.47 1012.83 1012.87 1013.05 1013.27 1013.20 1013.64 1014.15 1014.05 1014.14 1014.21 1014.65 1014.73 1014.97 1015.10 1015.60 1016.10 1016.59 1017.10 1018.10 1019.00 1020.00 1020.83 1021.63 1021.84 1022.41 1023.14 1023.35 1023.36 1023.46 1023.37 1023.26
1013.60 1013.29 1013.06 1012.44 1012.21 1011.90 1011.75 1011.97 1012.26 1012.63 1012.67 1013.05 1013.55 1013.90 1014.07 1014.15 1014.24 1014.68 1014.94 1014.99 1015.06 1015.38 1016.32 1016.78 1017.79 1018.45 1019.31 1020.44 1021.10 1021.81 1022.10 1022.10 1022.82 1023.34 1023.43 1022.92 1022.99 1023.18
1013.23 1012.85 1012.39 1012.22 1011.87 1011.66 1011.34 1011.29 1011.59 1012.23 1012.51 1013.22 1013.55 1014.04 1014.19 1014.36 1014.65 1014.82 1015.29 1015.43 1015.53 1016.00 1016.54 1017.43 1018.01 1018.88 1019.74 1020.63 1021.18 1021.67 1022.03 1022.22 1022.63 1023.25 1023.39 1022.83 1022.83 1022.91
1013.04 1012.57 1012.07 1011.59 1011.16 1011.19 1011.01 1010.97 1011.03 1011.56 1011.94 1012.52 1013.59 1014.03 1014.23 1014.49 1014.92 1015.33 1015.72 1015.74 1016.05 1016.74 1017.33 1017.96 1018.47 1019.21 1020.27 1020.78 1021.32 1021.66 1021.96 1022.11 1022.50 1023.36 1023.03 1022.63 1022.71 1022.98
1012.48 1011.94 1011.51 1011.33 1010.55 1010.21 1010.19 1010.33 1010.70 1011.03 1011.41 1011.85 1013.02 1014.05 1014.74 1014.99 1015.00 1015.68 1016.18 1016.59 1016.93 1016.83 1017.95 1018.49 1018.98 1019.66 1020.52 1021.09 1021.32 1021.62 1021.92 1022.15 1022.69 1022.93 1022.70 1022.70 1022.82 1023.04
1011.84 1011.21 1010.85 1010.54 1010.08 1009.38 1009.45 1009.56 1010.01 1010.28 1010.87 1011.42 1012.28 1013.47 1014.36 1015.15 1015.18 1015.82 1016.80 1017.27 1017.72 1018.07 1018.32 1018.98 1019.49 1020.06 1020.65 1020.88 1021.28 1021.60 1022.16 1022.10 1022.58 1022.67 1022.76 1022.80 1022.74 1022.88
1010.93 1010.60 1010.16 1009.70 1009.53 1009.05 1008.42 1008.61 1009.21 1009.57 1010.23 1010.96 1011.75 1012.85 1013.94 1014.91 1014.85 1015.77 1016.89 1017.82 1018.57 1018.84 1019.30 1019.75 1020.14 1020.67 1020.98 1021.03 1021.61 1021.91 1022.10 1022.15 1022.38 1022.57 1022.77 1022.56 1022.67 1022.82
1009.93 1009.58 1009.25 1008.95 1008.58 1008.01 1007.72 1007.98 1008.28 1008.77 1009.37 1010.23 1010.80 1011.56 1012.67 1013.72 1014.51 1015.29 1016.58 1017.97 1019.03 1019.32 1019.49 1020.32 1020.53 1021.33 1021.52 1021.66 1021.62 1021.73 1021.91 1022.16 1022.37 1022.51 1022.59 1022.63 1022.71 1022.63
1009.02 1008.73 1008.42 1008.03 1007.67 1007.16 1006.91 1007.08 1007.52 1007.87 1008.31 1009.10 1009.80 1010.45 1011.38 1012.44 1013.53 1014.89 1015.87 1016.79 1017.87 1018.92 1019.45 1020.60 1021.17 1021.19 1021.34 1021.39 1021.44 1021.75 1022.03 1022.14 1022.42 1022.58 1022.53 1022.59 1022.50 1022.40
1008.01 1007.76 1007.51 1007.12 1006.74 1006.14 1006.06 1006.52 1006.68 1007.16 1007.76 1008.39 1008.67 1009.23 1010.13 1011.45 1012.65 1013.76 1015.39 1017.02 1018.47 1019.35 1019.67 1020.46 1021.12 1021.21 1021.29 1021.19 1021.76 1021.83 1021.84 1022.19 1022.46 1022.50 1022.45 1022.35 1022.20 1021.92
1006.68 1006.48 1006.25 1005.93 1005.61 1005.35 1005.59 1006.14 1006.90 1007.56 1007.99 1008.10 1008.64 1009.33 1010.31 1011.29 1012.60 1014.02 1015.59 1016.47 1018.29 1019.49 1019.87 1020.01 1020.81 1020.83 1021.04 1021.02 1021.25 1021.53 1022.03 1022.29 1022.38 1022.37 1022.26 1022.03 1021.76 1021.38
1005.35 1005.12 1004.85 1004.75 1004.42 1004.29 1004.88 1005.63 1006.72 1007.70 1007.99 1008.91 1009.53 1010.40 1011.01 1012.21 1013.01 1013.51 1014.34 1015.68 1017.18 1019.10 1019.71 1019.95 1020.15 1020.33 1020.82 1021.10 1021.20 1021.58 1021.85 1022.15 1022.26 1022.23 1022.03 1021.79 1021.47 1021.06
1004.27 1003.86 1003.56 1003.26 1003.40 1003.77 1004.41 1005.02 1005.90 1007.72 1008.94 1009.25 1010.59 1011.67 1012.48 1013.12 1013.79 1014.31 1014.87 1015.55 1016.34 1017.48 1018.36 1019.09 1019.79 1020.26 1020.40 1020.83 1021.17 1021.42 1021.61 1021.63 1021.76 1021.76 1021.59 1021.31 1021.16 1021.01
1003.63 1003.09 1002.57 1002.42 1002.88 1003.71 1004.52 1005.27 1006.52 1007.60 1008.75 1010.03 1011.13 1012.28 1013.05 1013.82 1014.52 1015.01 1015.67 1016.32 1016.66 1017.22 1018.60 1019.03 1019.61 1019.87 1020.22 1020.78 1020.99 1021.43 1021.49 1021.60 1021.75 1021.58 1021.36 1021.06 1020.80 1020.55
1003.17 1002.64 1002.71 1003.26 1003.95 1004.73 1005.42 1005.99 1007.00 1008.04 1009.32 1010.63 1011.84 1012.94 1013.81 1014.44 1015.08 1015.95 1016.75 1017.43 1018.09 1018.78 1019.26 1019.46 1019.70 1020.34 1020.54 1020.75 1021.17 1021.56 1021.58 1021.52 1021.65 1021.47 1021.35 1021.04 1020.64 1020.37
1003.06 1003.24 1003.69 1004.36 1004.93 1005.73 1006.93 1007.45 1007.93 1008.84 1009.62 1010.93 1012.47 1013.62 1014.53 1015.07 1015.76 1016.57 1017.18 1017.99 1018.62 1019.68 1020.15 1020.36 1020.56 1020.75 1021.05 1021.35 1021.49 1021.61 1021.81 1021.73 1021.62 1021.51 1021.45 1021.04 1020.48 1020.05
1003.71 1004.34 1005.00 1005.67 1006.43 1007.12 1007.86 1008.57 1009.25 1010.05 1010.90 1012.09 1013.00 1013.96 1014.81 1015.52 1016.43 1017.21 1017.69 1018.07 1018.64 1019.72 1020.42 1020.90 1021.21 1021.34 1021.50 1021.71 1021.80 1021.94 1021.92 1021.87 1021.75 1021.61 1021.47 1020.93 1020.24 1019.84
1004.85 1005.29 1005.93 1006.52 1007.11 1007.79 1008.57 1009.47 1010.22 1011.00 1011.98 1012.73 1013.62 1014.37 1015.15 1016.08 1016.90 1017.63 1018.00 1018.48 1019.20 1020.02 1020.59 1021.09 1021.34 1021.58 1021.99 1022.31 1022.36 1022.15 1022.18 1022.08 1021.96 1021.76 1021.40 1020.85 1020.12 1019.74
1005.64 1006.36 1006.82 1007.38 1007.99 1008.64 1009.27 1010.04 1010.95 1011.95 1012.69 1013.44 1014.11 1014.93 1015.77 1016.57 1017.27 1017.99 1018.57 1019.18 1019.97 1020.62 1021.13 1021.44 1021.42 1021.40 1021.50 1021.88 1022.48 1022.66 1022.60 1022.40 1022.22 1021.78 1021.44 1021.05 1020.42 1019.76
1006.65 1007.18 1007.67 1008.17 1008.71 1009.29 1010.04 1010.82 1011.79 1012.64 1013.43 1014.21 1014.89 1015.70 1016.48 1017.11 1017.83 1018.48 1019.14 1019.77 1020.41 1020.98 1021.53 1021.89 1022.04 1022.16 1022.09 1022.40 1022.43 1022.47 1022.84 1022.69 1022.42 1022.01 1021.55 1021.04 1020.20 1019.47
1007.48 1007.95 1008.43 1008.93 1009.48 1010.14 1010.87 1011.66 1012.44 1013.29 1014.16 1014.93 1015.76 1016.48 1017.16 1017.68 1018.37 1019.10 1019.79 1020.31 1020.74 1021.25 1021.73 1022.39 1023.07 1023.15 1023.20 1023.21 1022.72 1022.43 1022.43 1022.59 1022.58 1022.35 1021.79 1021.05 1020.22 1019.40
1008.12 1008.58 1009.20 1009.74 1010.36 1010.98 1011.69 1012.38 1013.22 1014.14 1014.93 1015.63 1016.42 1017.09 1017.74 1018.38 1018.89 1019.45 1020.03 1020.62 1021.12 1021.61 1022.27 1022.92 1023.50 1023.35 1023.22 1023.20 1023.20 1023.05 1022.69 1022.52 1022.11 1021.98 1021.76 1021.80 1021.51 1020.71
1008.74 1009.23 1009.87 1010.53 1011.17 1011.71 1012.35 1013.11 1013.88 1014.71 1015.53 1016.27 1016.94 1017.67 1018.33 1018.84 1019.38 1019.95 1020.53 1021.04 1021.52 1022.04 1022.51 1022.94 1023.19 1023.38 1023.54 1023.62 1023.44 1023.29 1023.22 1022.77 1022.29 1021.88 1021.53 1021.47 1021.10 1020.77
Wind_Speed
9 10 11 9 9 10 7 7 7 6 5 6 4 3 2 3 4 3 5 14 20 21 19 15 15 16 17 16 13 10 9 7 5 5 6 7 6 7
8 10 11 9 10 9 9 8 9 9 6 3 3 2 3 2 4 3 3 6 16 18 14 19 19 20 18 14 12 10 8 7 6 6 8 5 5 7
12 11 12 12 9 9 10 9 8 8 8 2 3 3 3 4 3 4 3 5 8 19 22 21 21 19 15 12 11 10 8 7 5 7 7 4 5 8
13 13 12 10 15 13 11 10 11 9 8 8 5 2 1 5 4 5 3 4 8 16 18 17 17 16 12 10 12 11 9 6 5 7 5 4 6 9
14 13 12 13 15 12 14 11 10 7 8 5 5 2 1 3 6 5 5 5 4 16 16 16 15 13 11 10 11 10 8 7 5 5 4 5 6 9
15 14 14 14 14 16 11 13 10 10 8 6 5 5 3 1 4 5 4 3 4 5 9 10 10 9 9 10 11 8 8 6 5 4 4 4 7 10
14 14 14 16 20 21 10 12 11 9 7 7 5 4 4 4 9 4 4 4 4 3 5 3 4 3 1 5 8 8 6 5 5 3 4 6 9 12
15 16 16 19 19 25 22 15 14 12 11 8 5 7 9 6 5 9 7 5 4 1 3 3 3 3 2 2 5 5 6 5 5 3 5 8 11 12
15 14 13 11 17 13 20 21 20 21 19 13 12 10 10 13 12 10 9 6 3 4 4 3 1 2 2 3 5 5 6 6 4 2 6 9 11 12
15 15 15 15 15 14 10 10 13 14 15 11 12 10 8 13 12 7 10 9 8 5 2 3 2 3 4 4 6 7 8 7 2 4 8 10 11 14
14 14 15 15 20 22 12 9 9 7 8 12 13 17 19 22 18 13 8 10 4 2 1 3 4 4 4 4 4 9 7 5 3 7 9 10 12 17
12 13 21 19 21 20 13 14 12 9 11 12 12 15 17 16 19 7 11 9 7 3 5 3 5 4 4 3 4 5 5 6 6 7 8 10 15 8
8 8 9 21 20 24 22 13 17 14 16 13 11 10 9 9 7 7 7 6 5 4 8 4 5 4 2 4 3 3 3 3 3 4 6 12 13 12
8 6 5 13 16 19 14 27 28 21 11 11 10 9 8 8 8 9 10 9 8 9 10 4 4 3 3 3 3 2 2 1 2 3 6 10 12 11
5 5 17 20 21 18 28 29 22 11 12 11 10 9 7 9 12 12 12 15 14 11 8 7 6 6 3 3 3 2 1 1 1 5 6 7 7 7
14 12 15 17 19 20 13 11 9 9 11 11 10 9 8 9 9 8 9 9 9 8 9 8 7 4 4 4 2 3 2 2 4 5 6 7 7 6
11 8 7 8 10 9 9 9 9 10 11 11 11 10 9 9 9 8 7 6 7 6 5 5 6 5 5 3 3 2 3 3 5 6 7 7 7 6
7 7 7 8 9 9 10 9 9 13 9 10 9 9 9 9 9 7 7 8 8 6 5 4 4 3 2 3 2 3 2 4 6 7 7 7 6 6
7 6 7 8 8 8 9 9 10 9 10 9 9 9 9 9 9 8 8 8 8 6 5 3 3 2 4 3 2 2 4 4 5 5 5 6 9 9
7 7 8 8 8 9 9 10 10 9 9 9 9 9 8 8 8 8 8 8 7 7 6 4 5 5 3 2 2 2 2 4 4 5 6 7 8 13
7 8 8 8 9 9 9 9 9 9 9 9 8 8 7 8 8 8 8 10 10 6 6 5 3 4 2 1 1 2 2 5 4 5 6 7 8 6
7 8 8 8 9 9 9 9 10 9 8 8 8 7 7 7 8 8 8 7 6 6 6 4 3 2 2 3 2 3 4 6 7 6 5 3 4 6
7 8 8 8 8 8 9 9 9 9 8 8 8 8 7 8 8 8 8 7 7 6 6 5 4 3 3 2 2 2 4 4 4 5 4 5 11 13
Wind_Direction
261 264 268 262 249 230 206 214 230 242 230 223 216 221 202 183 167 200 202 212 197 203 210 207 161 142 143 154 162 172 173 179 203 224 232 245 270 295
260 248 263 255 254 242 225 214 222 237 250 172 196 175 184 175 163 154 173 182 204 200 159 135 133 132 137 150 165 174 179 175 204 233 241 250 284 296
274 264 260 254 256 254 237 228 216 219 234 108 194 175 161 151 128 108 138 115 109 123 125 129 129 130 140 157 170 173 181 187 209 242 248 266 295 301
274 273 268 266 240 238 235 234 224 208 221 187 179 156 130 151 117 102 85 95 122 132 135 132 127 133 150 165 178 179 186 182 199 235 255 298 304 301
274 273 269 268 260 241 238 225 225 205 219 162 147 114 97 191 98 74 73 65 97 134 135 134 134 141 159 178 190 188 185 188 191 231 267 290 301 303
269 268 266 260 271 253 237 219 211 206 193 193 153 149 128 118 120 131 109 61 78 84 115 124 131 147 177 188 189 180 165 163 209 240 257 285 299 301
268 266 263 263 265 263 221 223 200 196 178 171 157 141 139 172 165 155 114 111 61 80 100 84 90 81 125 159 147 161 173 194 222 212 267 295 297 297
265 267 266 264 260 257 224 214 200 193 185 183 182 164 172 168 143 157 139 146 157 248 120 107 112 154 147 186 176 174 197 222 189 231 280 294 297 300
260 261 262 257 261 255 228 213 202 193 188 180 188 181 165 176 158 152 160 154 123 131 106 116 48 155 167 176 177 195 218 188 174 266 293 296 300 303
261 257 255 257 257 240 229 213 210 199 195 193 187 175 163 155 166 152 140 107 88 86 71 125 147 181 196 201 193 219 184 169 173 292 297 299 301 307
252 249 247 250 255 237 206 148 125 98 96 104 114 125 134 143 137 124 140 132 106 125 212 109 174 150 187 182 166 182 168 193 267 305 299 300 309 313
246 242 247 245 246 195 161 146 130 132 121 111 110 111 116 133 140 143 148 139 121 122 197 144 149 157 162 163 173 173 201 220 261 303 301 298 316 312
257 246 240 235 207 168 160 161 143 132 119 108 102 98 97 94 93 93 89 120 117 85 154 136 156 152 88 136 153 185 223 222 284 297 291 309 310 307
262 242 230 182 155 150 143 132 128 118 114 113 108 102 102 97 89 84 80 75 67 106 132 126 116 146 135 141 140 152 191 285 308 304 317 311 308 307
241 169 119 115 118 118 129 127 121 119 119 112 108 102 100 106 100 95 89 90 84 83 82 82 106 116 98 106 121 117 353 340 289 321 320 313 316 315
125 108 112 109 110 111 104 93 100 115 118 114 111 104 111 108 104 110 111 112 99 88 69 66 81 91 104 94 102 110 45 336 327 325 327 311 304 299
113 102 104 103 104 101 92 93 98 100 106 114 118 120 113 110 108 117 114 112 108 122 107 81 74 77 70 105 119 82 357 326 331 332 328 316 312 306
95 104 108 109 110 112 111 107 101 107 110 116 117 118 117 118 119 112 110 108 111 110 104 89 127 123 127 95 13 41 7 338 334 327 320 320 309 321
100 98 102 107 110 109 110 111 109 108 117 115 116 113 115 115 116 114 109 109 105 103 84 72 87 169 137 120 107 251 350 345 326 318 325 312 305 311
95 103 105 105 106 107 107 110 112 113 109 112 111 110 111 116 120 117 116 118 119 113 101 78 59 46 64 73 101 94 40 336 338 326 323 313 298 301
109 105 105 106 104 106 109 109 110 110 113 110 108 109 114 117 113 114 119 121 119 116 104 87 61 44 72 219 121 32 3 21 347 309 320 328 332 319
108 107 105 104 106 107 110 111 110 112 113 110 111 111 112 113 117 123 119 119 110 103 98 97 126 149 72 56 53 354 343 344 339 340 330 328 335 319
106 107 105 104 113 115 112 113 113 114 113 114 115 114 118 120 117 115 115 108 112 112 119 121 116 88 89 64 26 7 355 338 344 342 332 290 318 303